Location: Stamford Observatory
(41.1241°N, 73.5498°W)
Time: 13:31:51
(UTC-04:00)

IRS-P3 - Visible Passes

Search period start: 02 September 2014 00:00
Search period end: 12 September 2014 00:00
Orbit: 814 x 821 km, 98.6° (Epoch: 31 August)

Date Brightness Start Highest point End Pass type
(mag) Time Alt. Az. Time Alt. Az. Time Alt. Az.
02 Sep 5.9 02:14:46 10° NNE 02:17:30 29° NE 02:17:30 29° NE visible
02 Sep 5.7 03:55:33 10° NNW 03:58:48 22° NW 03:58:48 22° NW visible
03 Sep 6.3 01:53:41 10° NE 01:55:42 20° NE 01:55:42 20° NE visible
03 Sep 5.4 03:33:38 10° N 03:37:01 29° NW 03:37:01 29° NW visible
04 Sep 6.7 01:32:57 10° NE 01:33:55 14° NE 01:33:55 14° NE visible
04 Sep 5.3 03:11:56 10° N 03:15:13 35° NNW 03:15:13 35° NNW visible
05 Sep 5.4 02:50:23 10° NNE 02:53:26 36° N 02:53:26 36° N visible
05 Sep 6.2 04:33:22 10° NW 04:34:44 11° NW 04:34:44 11° NW visible
06 Sep 5.8 02:28:59 10° NNE 02:31:39 30° NNE 02:31:39 30° NNE visible
06 Sep 6.0 04:10:25 10° NNW 04:12:57 17° NW 04:12:57 17° NW visible
07 Sep 6.2 02:07:46 10° NNE 02:09:51 22° NE 02:09:51 22° NE visible
07 Sep 5.7 03:48:17 10° N 03:51:09 23° NW 03:51:09 23° NW visible
08 Sep 6.6 01:46:47 10° NE 01:48:04 16° NE 01:48:04 16° NE visible
08 Sep 5.5 03:26:27 10° N 03:29:22 28° NNW 03:29:22 28° NNW visible
09 Sep 7.0 01:26:12 10° NE 01:26:16 10° NE 01:26:16 10° NE visible
09 Sep 5.6 03:04:47 10° N 03:07:34 31° N 03:07:34 31° N visible
10 Sep 5.8 02:43:17 10° NNE 02:45:47 29° NNE 02:45:47 29° NNE visible
10 Sep 6.2 04:25:35 10° NNW 04:27:05 13° NW 04:27:05 13° NW visible
11 Sep 6.2 02:21:57 10° NNE 02:23:59 23° NNE 02:23:59 23° NNE visible
11 Sep 6.0 04:03:03 10° NNW 04:05:17 18° NW 04:05:17 18° NW visible
